Weather reports worldwide

Advertisment
Venezia/Tessera, Italy (16105): temperature & dewpoint: 10.08.2018 13:00:00 - 16.08.2018 13:00:00 (CEST)Venezia/Tessera, Italy (16105): wind speed: 10.08.2018 13:00:00 - 16.08.2018 13:00:00 (CEST)Venezia/Tessera, Italy (16105): wind direction: 10.08.2018 13:00:00 - 16.08.2018 13:00:00 (CEST)Venezia/Tessera, Italy (16105): reduced air pressure: 10.08.2018 13:00:00 - 16.08.2018 13:00:00 (CEST)Venezia/Tessera, Italy (16105): visibility: 10.08.2018 13:00:00 - 16.08.2018 13:00:00 (CEST)Venezia/Tessera, Italy (16105): precipitation: 10.08.2018 13:00:00 - 16.08.2018 13:00:00 (CEST)
Date & Time tt [°C] td [°C] ff [km/h] ff [kn] dd ppp [hPa] vv [km] rr [mm]
16.08.2018 13:00:00 29,0 14,0 18 10 ENE - 10 -
16.08.2018 12:00:00 28,0 14,0 21 11 ENE - 10 -
16.08.2018 11:00:00 27,7 13,8 18 10 NE 1017,0 10 0,0
16.08.2018 10:00:00 26,0 15,0 18 10 N - 10 -
16.08.2018 09:00:00 24,0 16,0 18 10 NNE - 10 -
16.08.2018 08:00:00 22,4 15,7 11 6 NE 1016,8 10 -
16.08.2018 07:00:00 21,0 15,0 11 6 N - 10 -
16.08.2018 06:00:00 21,0 15,0 15 8 N - 10 -
16.08.2018 05:00:00 20,6 15,7 15 8 N 1016,7 10 0,0
16.08.2018 04:00:00 21,0 16,0 15 8 N - 10 -
16.08.2018 03:00:00 22,0 16,0 13 7 N - 10 -
16.08.2018 02:00:00 22,5 15,7 13 7 NNE 1017,2 10 -
16.08.2018 01:00:00 23,0 16,0 15 8 NNE - 10 -
16.08.2018 00:00:00 25,0 16,0 11 6 N - 10 -
15.08.2018 23:00:00 25,2 15,7 8 4 N 1016,5 10 0,0
15.08.2018 22:00:00 26,0 17,0 2 1 NE - 10 -
15.08.2018 21:00:00 26,0 19,0 5 3 SSE - 10 -
15.08.2018 20:00:00 27,3 16,8 4 2 SE 1015,1 10 -
15.08.2018 19:00:00 29,0 15,0 5 3 SE - 10 -
15.08.2018 18:00:00 29,0 15,0 5 3 S - 10 -
15.08.2018 17:00:00 29,7 14,2 8 4 E 1015,4 10 0,0
15.08.2018 16:00:00 29,0 14,0 11 6 E - 10 -
15.08.2018 15:00:00 29,0 14,0 11 6 ENE - 10 -
15.08.2018 14:00:00 28,8 14,2 9 5 ENE 1016,0 10 -
15.08.2018 13:00:00 28,0 14,0 11 6 ENE - 10 -
15.08.2018 12:00:00 26,0 18,0 8 4 ENE - 10 -
15.08.2018 11:00:00 25,3 18,5 9 5 NNE 1016,2 10 0,0
15.08.2018 10:00:00 24,0 18,0 13 7 N - 10 -
15.08.2018 09:00:00 22,0 18,0 16 9 N - 10 -
15.08.2018 08:00:00 20,9 18,2 15 8 N 1014,9 10 -
15.08.2018 07:00:00 20,0 18,0 11 6 N - 10 -
15.08.2018 06:00:00 20,0 18,0 13 7 NNW - 10 -
15.08.2018 05:00:00 20,0 18,0 11 6 N 1014,5 10 0,0
15.08.2018 04:00:00 20,0 18,0 13 7 N - 10 -
15.08.2018 03:00:00 20,0 18,0 13 7 N - 10 -
15.08.2018 02:00:00 19,7 18,1 9 5 N 1014,8 10 -
15.08.2018 01:00:00 20,0 18,0 11 6 N - 10 -
15.08.2018 00:00:00 20,0 19,0 15 8 N - 10 -
14.08.2018 23:00:00 19,6 18,6 16 9 N 1014,4 10 0,0
14.08.2018 22:00:00 19,0 18,0 21 11 NNE - 10 -
14.08.2018 21:00:00 19,0 18,0 16 9 NE - 10 -
14.08.2018 20:00:00 21,0 18,6 35 19 NE 1012,8 10 -
14.08.2018 19:00:00 26,0 18,0 8 4 W - 10 -
14.08.2018 18:00:00 26,0 19,0 8 4 S - 10 -
14.08.2018 17:00:00 26,8 19,2 11 6 S 1011,0 10 0,0
14.08.2018 16:00:00 28,0 20,0 4 2 - - 10 -
14.08.2018 15:00:00 26,0 20,0 13 7 SSW - 10 -
14.08.2018 14:00:00 26,6 18,6 11 6 S 1012,0 10 -
14.08.2018 13:00:00 26,0 18,0 8 4 SSE - 10 -
14.08.2018 12:00:00 25,0 19,0 9 5 E - 10 -
14.08.2018 11:00:00 24,6 18,9 5 3 N 1012,0 10 0,0
14.08.2018 10:00:00 23,0 20,0 5 3 NW - 10 -
14.08.2018 09:00:00 22,0 19,0 5 3 NW - 7 -
14.08.2018 08:00:00 20,8 19,5 8 4 NW 1011,7 6 -
14.08.2018 07:00:00 20,0 19,0 9 5 NNW - 10 -
14.08.2018 06:00:00 20,0 19,0 4 2 - - 10 -
14.08.2018 05:00:00 20,5 18,7 8 4 N 1010,4 10 0,0
14.08.2018 04:00:00 21,0 19,0 8 4 W - 10 -
14.08.2018 03:00:00 21,0 19,0 8 4 WNW - 10 -
14.08.2018 02:00:00 21,6 19,4 8 4 S 1010,5 10 -
14.08.2018 01:00:00 21,0 18,0 9 5 WSW - 10 -
14.08.2018 00:00:00 20,0 18,0 5 3 W - 10 -
13.08.2018 23:00:00 19,9 18,0 9 5 N 1010,6 10 0,0
13.08.2018 22:00:00 20,0 18,0 15 8 N - 10 -
13.08.2018 21:00:00 21,0 19,0 16 9 W - 8 -
13.08.2018 20:00:00 22,6 16,1 68 37 SSW 1009,6 6 -
13.08.2018 19:00:00 28,0 18,0 15 8 NE - 10 -
13.08.2018 18:00:00 28,0 21,0 11 6 SE - 10 -
13.08.2018 17:00:00 29,5 22,6 15 8 SSE 1009,9 10 0,0
13.08.2018 16:00:00 30,0 22,0 15 8 SSE - 10 -
13.08.2018 15:00:00 29,0 22,0 18 10 SE - 10 -
13.08.2018 14:00:00 28,8 21,2 15 8 SE 1012,2 10 -
13.08.2018 13:00:00 28,0 21,0 11 6 SE - 10 -
13.08.2018 12:00:00 29,0 20,0 5 3 SSE - 10 -
13.08.2018 11:00:00 28,4 20,0 5 3 - 1013,5 10 0,0
13.08.2018 10:00:00 27,0 19,0 5 3 NNW - 10 -
13.08.2018 09:00:00 24,0 19,0 5 3 NE - 10 -
13.08.2018 08:00:00 22,5 18,6 8 4 NNE 1013,1 10 -
13.08.2018 07:00:00 22,0 19,0 9 5 N - 10 -
13.08.2018 06:00:00 22,0 20,0 5 3 NNW - 10 -
13.08.2018 05:00:00 23,2 19,3 4 2 - 1013,0 10 0,0
13.08.2018 04:00:00 23,0 21,0 4 2 WNW - 10 -
13.08.2018 03:00:00 24,0 20,0 5 3 WSW - 10 -
13.08.2018 02:00:00 24,2 20,1 8 4 WSW 1014,5 - -
13.08.2018 01:00:00 25,0 21,0 13 7 SSW - 10 -
13.08.2018 00:00:00 25,0 22,0 11 6 SW - 10 -
12.08.2018 23:00:00 25,7 20,0 9 5 SW 1014,6 10 0,0
12.08.2018 22:00:00 26,0 20,0 8 4 SSW - 10 -
12.08.2018 21:00:00 27,0 20,0 5 3 SSW - 10 -
12.08.2018 20:00:00 27,6 18,2 9 5 SSW 1014,5 10 -
12.08.2018 19:00:00 29,0 19,0 8 4 SSE - 10 -
12.08.2018 18:00:00 30,0 19,0 8 4 SSE - 10 -
12.08.2018 17:00:00 29,2 18,2 9 5 SSE 1015,6 10 0,0
12.08.2018 16:00:00 29,0 19,0 11 6 SSE - 10 -
12.08.2018 15:00:00 29,0 18,0 9 5 SSE - 10 -
12.08.2018 14:00:00 29,1 18,0 9 5 SSE 1017,5 10 -
12.08.2018 13:00:00 29,0 17,0 9 5 ENE - 10 -
12.08.2018 12:00:00 29,0 18,0 16 9 ENE - 10 -
12.08.2018 11:00:00 27,4 17,0 18 10 ENE 1018,5 10 0,0
12.08.2018 10:00:00 27,0 17,0 22 12 NE - 10 -
12.08.2018 09:00:00 26,0 17,0 22 12 NNE - 10 -
12.08.2018 08:00:00 23,6 17,4 18 10 NNE 1018,2 10 -
12.08.2018 07:00:00 21,0 17,0 15 8 N - 10 -
12.08.2018 06:00:00 21,0 18,0 15 8 NE - 10 -
12.08.2018 05:00:00 21,7 17,5 18 10 NNE 1017,6 10 0,0
12.08.2018 04:00:00 22,0 17,0 21 11 NNE - 10 -
12.08.2018 03:00:00 23,0 18,0 18 10 NNE - 10 -
12.08.2018 02:00:00 22,6 17,7 15 8 N 1017,9 10 -
12.08.2018 01:00:00 23,0 18,0 15 8 NNE - 10 -
12.08.2018 00:00:00 23,0 18,0 16 9 NE - 10 -
11.08.2018 23:00:00 23,4 17,4 21 11 NNE 1017,7 10 0,0
11.08.2018 22:00:00 25,0 18,0 21 11 NNE - 10 -
11.08.2018 21:00:00 27,0 22,0 18 10 NE - 10 -
11.08.2018 20:00:00 28,3 21,3 9 5 ENE 1016,2 10 -
11.08.2018 19:00:00 29,0 21,0 8 4 E - 10 -
11.08.2018 18:00:00 30,0 20,0 8 4 S - 10 -
11.08.2018 17:00:00 28,9 20,3 8 4 SSE 1016,3 10 0,0
11.08.2018 16:00:00 29,0 21,0 9 5 SSE - 10 -
11.08.2018 15:00:00 31,0 20,0 13 7 SSE - 10 -
11.08.2018 14:00:00 30,3 20,8 11 6 ESE 1017,4 10 -
11.08.2018 13:00:00 29,0 20,0 9 5 E - 10 -
11.08.2018 12:00:00 29,0 20,0 9 5 ENE - 10 -
11.08.2018 11:00:00 27,9 20,8 11 6 NE 1018,4 10 0,0
11.08.2018 10:00:00 27,0 21,0 13 7 NE - 10 -
11.08.2018 09:00:00 24,0 20,0 16 9 NE - 10 -
11.08.2018 08:00:00 21,9 19,8 13 7 NNE 1018,0 10 -
11.08.2018 07:00:00 22,0 21,0 11 6 NNE - 10 -
11.08.2018 06:00:00 23,0 21,0 5 3 N - 10 -
11.08.2018 05:00:00 23,2 21,2 4 2 - 1017,3 10 0,0
11.08.2018 04:00:00 23,0 21,0 11 6 N - 10 -
11.08.2018 03:00:00 25,0 21,0 11 6 N - 10 -
11.08.2018 02:00:00 26,0 21,3 5 3 WNW 1018,0 10 -
11.08.2018 01:00:00 27,0 22,0 8 4 WSW - 10 -
11.08.2018 00:00:00 27,0 23,0 11 6 SSW - 10 -
10.08.2018 23:00:00 28,1 21,5 11 6 S 1017,9 10 0,0
10.08.2018 22:00:00 28,0 22,0 9 5 SSE - 10 -
10.08.2018 21:00:00 29,0 21,0 8 4 SSE - 10 -
10.08.2018 20:00:00 29,4 20,9 11 6 SSE 1017,0 10 -
10.08.2018 19:00:00 31,0 19,0 9 5 SSE - 10 -
10.08.2018 18:00:00 32,0 18,0 13 7 SSW - 10 -
10.08.2018 17:00:00 32,5 17,5 16 9 SSW 1017,4 10 0,0
10.08.2018 16:00:00 32,0 19,0 13 7 S - 10 -
10.08.2018 15:00:00 32,0 17,0 11 6 S - 10 -
10.08.2018 14:00:00 32,1 17,7 11 6 SSW 1018,6 10 -
10.08.2018 13:00:00 30,0 18,0 11 6 SSE - 10 -

tt = temperature
td = dewpoint
ff = wind speed
dd = wind direction
ppp = reduced air pressure
vv = visibility
rr = precipitation

Next stations